Time,TemperatureF,DewpointF,PressureIn,WindDirection,WindDirectionDegrees,WindSpeedMPH,WindSpeedGustMPH,Humidity,HourlyPrecipIn,Conditions,Clouds,dailyrainin,SoftwareType,DateUTC
2013-12-12 00:01:00,37.0,9.2,30.24,North,0,0.0,0.0,31,0.00,,CLR,0.00,VWS V14.01,2013-12-12 05:01:00,
2013-12-12 00:02:00,37.0,9.9,30.24,North,0,0.0,0.0,32,0.00,,CLR,0.00,VWS V14.01,2013-12-12 05:02:00,
2013-12-12 00:06:00,36.3,9.3,30.24,North,0,2.7,2.7,32,0.00,,CLR,0.00,VWS V14.01,2013-12-12 05:06:00,
2013-12-12 00:11:00,35.6,9.4,30.24,North,0,0.0,0.0,33,0.00,,CLR,0.00,VWS V14.01,2013-12-12 05:11:00,
2013-12-12 00:16:00,35.1,11.4,30.24,North,0,0.0,0.0,37,0.00,,CLR,0.00,VWS V14.01,2013-12-12 05:16:00,
2013-12-12 00:21:00,34.5,12.7,30.24,North,0,0.0,0.0,40,0.00,,CLR,0.00,VWS V14.01,2013-12-12 05:21:00,
2013-12-12 00:26:00,34.5,12.1,30.24,North,0,0.0,0.0,39,0.00,,CLR,0.00,VWS V14.01,2013-12-12 05:26:00,
2013-12-12 00:31:00,35.2,11.6,30.24,NW,315,0.0,0.0,37,0.00,,CLR,0.00,VWS V14.01,2013-12-12 05:31:00,
2013-12-12 00:36:00,35.6,10.0,30.24,NW,315,0.0,0.0,34,0.00,,CLR,0.00,VWS V14.01,2013-12-12 05:36:00,
2013-12-12 00:41:00,35.4,10.5,30.24,NW,315,0.0,0.0,35,0.00,,CLR,0.00,VWS V14.01,2013-12-12 05:41:00,
2013-12-12 00:46:00,35.1,12.6,30.24,NW,315,2.2,2.2,39,0.00,,CLR,0.00,VWS V14.01,2013-12-12 05:46:00,
2013-12-12 00:51:00,34.3,13.1,30.24,NW,315,0.0,0.0,41,0.00,,CLR,0.00,VWS V14.01,2013-12-12 05:51:00,
2013-12-12 00:56:00,33.8,12.6,30.24,NW,315,0.0,0.0,41,0.00,,CLR,0.00,VWS V14.01,2013-12-12 05:56:00,
2013-12-12 01:01:00,34.0,12.2,30.24,NW,315,0.0,0.0,40,0.00,,CLR,0.00,VWS V14.01,2013-12-12 06:01:00,
2013-12-12 01:06:00,34.0,12.2,30.24,NW,315,2.2,2.2,40,0.00,,CLR,0.00,VWS V14.01,2013-12-12 06:06:00,
2013-12-12 01:11:00,33.4,12.3,30.24,NW,315,2.7,2.7,41,0.00,,CLR,0.00,VWS V14.01,2013-12-12 06:11:00,
2013-12-12 01:16:00,32.9,12.3,30.24,NW,315,0.0,0.0,42,0.00,,CLR,0.00,VWS V14.01,2013-12-12 06:16:00,
2013-12-12 01:21:00,34.0,12.2,30.24,NW,315,0.0,0.0,40,0.00,,CLR,0.00,VWS V14.01,2013-12-12 06:21:00,
2013-12-12 01:26:00,34.2,12.4,30.24,NW,315,0.0,0.0,40,0.00,,CLR,0.00,VWS V14.01,2013-12-12 06:26:00,
2013-12-12 01:31:00,34.3,12.0,30.27,NW,315,0.0,0.0,39,0.00,,CLR,0.00,VWS V14.01,2013-12-12 06:31:00,
2013-12-12 01:36:00,34.2,11.2,30.27,NW,315,0.0,0.0,38,0.00,,CLR,0.00,VWS V14.01,2013-12-12 06:36:00,
2013-12-12 01:41:00,34.2,10.0,30.27,NW,315,0.0,0.0,36,0.00,,CLR,0.00,VWS V14.01,2013-12-12 06:41:00,
2013-12-12 01:46:00,34.2,10.0,30.24,NW,315,0.0,0.0,36,0.00,,CLR,0.00,VWS V14.01,2013-12-12 06:46:00,
2013-12-12 01:51:00,33.8,9.7,30.24,NW,315,0.0,0.0,36,0.00,,CLR,0.00,VWS V14.01,2013-12-12 06:51:00,
2013-12-12 01:56:00,33.6,9.5,30.24,NW,315,0.0,0.0,36,0.00,,CLR,0.00,VWS V14.01,2013-12-12 06:56:00,
2013-12-12 02:02:00,34.5,9.7,30.24,NW,315,2.2,2.2,35,0.00,,CLR,0.00,VWS V14.01,2013-12-12 07:02:00,
2013-12-12 02:07:00,34.3,8.9,30.24,NW,315,3.1,3.1,34,0.00,,CLR,0.00,VWS V14.01,2013-12-12 07:07:00,
2013-12-12 02:12:00,34.7,8.6,30.24,NW,315,2.7,2.7,33,0.00,,CLR,0.00,VWS V14.01,2013-12-12 07:12:00,
2013-12-12 02:17:00,34.9,8.0,30.24,NW,315,2.2,2.7,32,0.00,,CLR,0.00,VWS V14.01,2013-12-12 07:17:00,
2013-12-12 02:22:00,34.3,7.6,30.24,NW,315,0.0,0.0,32,0.00,,CLR,0.00,VWS V14.01,2013-12-12 07:22:00,
2013-12-12 02:27:00,34.2,7.4,30.24,NW,315,2.2,2.2,32,0.00,,CLR,0.00,VWS V14.01,2013-12-12 07:27:00,
2013-12-12 02:32:00,34.0,7.9,30.27,NW,315,2.7,2.7,33,0.00,,CLR,0.00,VWS V14.01,2013-12-12 07:32:00,
2013-12-12 02:37:00,33.6,7.6,30.27,NW,315,2.7,2.7,33,0.00,,CLR,0.00,VWS V14.01,2013-12-12 07:37:00,
2013-12-12 02:42:00,33.3,7.3,30.27,NW,315,0.0,0.0,33,0.00,,CLR,0.00,VWS V14.01,2013-12-12 07:42:00,
2013-12-12 02:47:00,32.9,7.0,30.27,NW,315,0.0,0.0,33,0.00,,CLR,0.00,VWS V14.01,2013-12-12 07:47:00,
2013-12-12 02:52:00,33.3,7.3,30.27,NW,315,0.0,0.0,33,0.00,,CLR,0.00,VWS V14.01,2013-12-12 07:52:00,
2013-12-12 02:57:00,32.9,7.0,30.27,NW,315,0.0,0.0,33,0.00,,CLR,0.00,VWS V14.01,2013-12-12 07:57:00,
2013-12-12 03:02:00,32.4,7.1,30.27,NW,315,0.0,0.0,34,0.00,,CLR,0.00,VWS V14.01,2013-12-12 08:02:00,
2013-12-12 03:07:00,31.8,7.3,30.27,NW,315,0.0,0.0,35,0.00,,CLR,0.00,VWS V14.01,2013-12-12 08:07:00,
2013-12-12 03:12:00,32.0,8.1,30.27,NW,315,0.0,0.0,36,0.00,,CLR,0.00,VWS V14.01,2013-12-12 08:12:00,
2013-12-12 03:17:00,31.5,7.6,30.27,NW,315,0.0,0.0,36,0.00,,CLR,0.00,VWS V14.01,2013-12-12 08:17:00,
2013-12-12 03:22:00,30.7,7.6,30.27,NW,315,0.0,0.0,37,0.00,,CLR,0.00,VWS V14.01,2013-12-12 08:22:00,
2013-12-12 03:40:00,29.5,9.2,30.24,NW,315,0.0,0.0,42,0.00,,,0.00,VWS V14.01,2013-12-12 08:40:00,
2013-12-12 03:45:00,28.9,9.3,30.24,NW,315,0.0,0.0,43,0.00,,CLR,0.00,VWS V14.01,2013-12-12 08:45:00,
2013-12-12 03:51:00,28.8,9.6,30.24,NW,315,0.0,0.0,44,0.00,,CLR,0.00,VWS V14.01,2013-12-12 08:51:00,
2013-12-12 03:56:00,28.0,9.9,30.24,NW,315,0.0,0.0,46,0.00,,CLR,0.00,VWS V14.01,2013-12-12 08:56:00,
2013-12-12 04:25:00,28.8,9.6,30.24,NW,315,0.0,0.0,44,0.00,,CLR,0.00,VWS V14.01,2013-12-12 09:25:00,
2013-12-12 04:30:00,28.8,9.6,30.24,NW,315,0.0,0.0,44,0.00,,CLR,0.00,VWS V14.01,2013-12-12 09:30:00,
2013-12-12 04:35:00,28.9,9.3,30.24,NW,315,0.0,0.0,43,0.00,,CLR,0.00,VWS V14.01,2013-12-12 09:35:00,
2013-12-12 04:40:00,29.8,9.6,30.24,NW,315,0.0,0.0,42,0.00,,CLR,0.00,VWS V14.01,2013-12-12 09:40:00,
2013-12-12 04:45:00,29.7,9.4,30.24,NW,315,0.0,0.0,42,0.00,,CLR,0.00,VWS V14.01,2013-12-12 09:45:00,
2013-12-12 04:50:00,29.7,9.4,30.24,NW,315,0.0,0.0,42,0.00,,CLR,0.00,VWS V14.01,2013-12-12 09:50:00,
2013-12-12 04:55:00,28.9,9.3,30.24,NW,315,0.0,0.0,43,0.00,,CLR,0.00,VWS V14.01,2013-12-12 09:55:00,
2013-12-12 05:00:00,28.6,8.9,30.24,NW,315,0.0,0.0,43,0.00,,CLR,0.00,VWS V14.01,2013-12-12 10:00:00,
2013-12-12 05:05:00,28.4,8.8,30.24,NW,315,0.0,0.0,43,0.00,,CLR,0.00,VWS V14.01,2013-12-12 10:05:00,
2013-12-12 05:10:00,27.5,8.5,30.24,NW,315,0.0,0.0,44,0.00,,CLR,0.00,VWS V14.01,2013-12-12 10:10:00,
2013-12-12 05:15:00,27.0,9.4,30.24,NW,315,0.0,0.0,47,0.00,,CLR,0.00,VWS V14.01,2013-12-12 10:15:00,
2013-12-12 05:20:00,26.4,11.2,30.24,NW,315,0.0,0.0,52,0.00,,CLR,0.00,VWS V14.01,2013-12-12 10:20:00,
2013-12-12 05:25:00,25.9,11.5,30.24,NW,315,0.0,0.0,54,0.00,,CLR,0.00,VWS V14.01,2013-12-12 10:25:00,
2013-12-12 05:30:00,25.5,11.6,30.24,NW,315,0.0,0.0,55,0.00,,CLR,0.00,VWS V14.01,2013-12-12 10:30:00,
2013-12-12 05:35:00,25.5,12.8,30.27,NW,315,3.1,3.1,58,0.00,,CLR,0.00,VWS V14.01,2013-12-12 10:35:00,
2013-12-12 05:40:00,25.9,13.9,30.27,NW,315,2.7,2.7,60,0.00,,CLR,0.00,VWS V14.01,2013-12-12 10:40:00,
2013-12-12 05:45:00,25.9,13.9,30.27,NW,315,0.0,0.0,60,0.00,,CLR,0.00,VWS V14.01,2013-12-12 10:45:00,
2013-12-12 05:50:00,25.5,13.2,30.27,NW,315,0.0,0.0,59,0.00,,CLR,0.00,VWS V14.01,2013-12-12 10:50:00,
2013-12-12 05:55:00,25.7,13.4,30.27,NW,315,0.0,0.0,59,0.00,,CLR,0.00,VWS V14.01,2013-12-12 10:55:00,
2013-12-12 06:00:00,25.9,13.5,30.27,NW,315,0.0,0.0,59,0.00,,CLR,0.00,VWS V14.01,2013-12-12 11:00:00,
2013-12-12 06:05:00,25.3,12.6,30.27,NW,315,0.0,0.0,58,0.00,,CLR,0.00,VWS V14.01,2013-12-12 11:05:00,
2013-12-12 06:10:00,25.0,12.3,30.27,NW,315,0.0,0.0,58,0.00,,CLR,0.00,VWS V14.01,2013-12-12 11:10:00,
2013-12-12 06:15:00,24.8,12.5,30.27,NW,315,0.0,0.0,59,0.00,,CLR,0.00,VWS V14.01,2013-12-12 11:15:00,
2013-12-12 06:20:00,24.6,13.1,30.27,NW,315,0.0,0.0,61,0.00,,CLR,0.00,VWS V14.01,2013-12-12 11:20:00,
2013-12-12 06:25:00,25.7,14.1,30.27,NW,315,0.0,0.0,61,0.00,,CLR,0.00,VWS V14.01,2013-12-12 11:25:00,
2013-12-12 06:30:00,25.5,13.6,30.27,NW,315,0.0,0.0,60,0.00,,CLR,0.00,VWS V14.01,2013-12-12 11:30:00,
2013-12-12 06:35:00,24.8,12.9,30.27,NW,315,0.0,0.0,60,0.00,,CLR,0.00,VWS V14.01,2013-12-12 11:35:00,
2013-12-12 06:40:00,24.4,13.3,30.27,NW,315,0.0,0.0,62,0.00,,CLR,0.00,VWS V14.01,2013-12-12 11:40:00,
2013-12-12 06:45:00,24.3,14.2,30.27,NW,315,0.0,0.0,65,0.00,,CLR,0.00,VWS V14.01,2013-12-12 11:45:00,
2013-12-12 06:50:00,23.9,15.2,30.30,NW,315,0.0,0.0,69,0.00,,CLR,0.00,VWS V14.01,2013-12-12 11:50:00,
2013-12-12 06:55:00,23.5,15.5,30.30,NW,315,0.0,0.0,71,0.00,,CLR,0.00,VWS V14.01,2013-12-12 11:55:00,
2013-12-12 07:00:00,23.4,16.0,30.30,NW,315,2.2,2.2,73,0.00,,CLR,0.00,VWS V14.01,2013-12-12 12:00:00,
2013-12-12 07:05:00,23.4,16.6,30.30,NW,315,0.0,0.0,75,0.00,,CLR,0.00,VWS V14.01,2013-12-12 12:05:00,
2013-12-12 07:10:00,23.2,16.8,30.30,NW,315,0.0,0.0,76,0.00,,CLR,0.00,VWS V14.01,2013-12-12 12:10:00,
2013-12-12 07:15:00,22.8,16.7,30.30,NW,315,0.0,0.0,77,0.00,,CLR,0.00,VWS V14.01,2013-12-12 12:15:00,
2013-12-12 07:20:00,23.5,17.7,30.30,NW,315,0.0,0.0,78,0.00,,CLR,0.00,VWS V14.01,2013-12-12 12:20:00,
2013-12-12 07:25:00,23.5,17.7,30.30,NW,315,0.0,0.0,78,0.00,,CLR,0.00,VWS V14.01,2013-12-12 12:25:00,
2013-12-12 07:30:00,23.2,17.4,30.30,NW,315,0.0,0.0,78,0.00,,CLR,0.00,VWS V14.01,2013-12-12 12:30:00,
2013-12-12 07:35:00,22.8,17.3,30.30,NW,315,0.0,0.0,79,0.00,,CLR,0.00,VWS V14.01,2013-12-12 12:35:00,
2013-12-12 07:40:00,22.8,17.3,30.30,NW,315,0.0,0.0,79,0.00,,CLR,0.00,VWS V14.01,2013-12-12 12:40:00,
2013-12-12 07:45:00,22.8,17.3,30.30,NW,315,0.0,0.0,79,0.00,,CLR,0.00,VWS V14.01,2013-12-12 12:45:00,
2013-12-12 07:50:00,22.6,17.4,30.30,NW,315,0.0,0.0,80,0.00,,CLR,0.00,VWS V14.01,2013-12-12 12:50:00,
2013-12-12 07:55:00,22.6,17.7,30.30,NW,315,0.0,0.0,81,0.00,,CLR,0.00,VWS V14.01,2013-12-12 12:55:00,
2013-12-12 08:00:00,22.6,18.0,30.30,NW,315,0.0,0.0,82,0.00,,CLR,0.00,VWS V14.01,2013-12-12 13:00:00,
2013-12-12 08:05:00,23.4,18.7,30.30,NW,315,0.0,0.0,82,0.00,,CLR,0.00,VWS V14.01,2013-12-12 13:05:00,
2013-12-12 08:10:00,24.1,19.7,30.30,NW,315,0.0,0.0,83,0.00,,CLR,0.00,VWS V14.01,2013-12-12 13:10:00,
2013-12-12 08:15:00,23.9,19.5,30.30,NW,315,0.0,0.0,83,0.00,,CLR,0.00,VWS V14.01,2013-12-12 13:15:00,
2013-12-12 08:20:00,24.4,20.0,30.33,NW,315,0.0,0.0,83,0.00,,CLR,0.00,VWS V14.01,2013-12-12 13:20:00,
2013-12-12 08:25:00,24.6,19.9,30.33,NW,315,0.0,0.0,82,0.00,,CLR,0.00,VWS V14.01,2013-12-12 13:25:00,
2013-12-12 08:30:00,25.0,20.0,30.33,NW,315,0.0,0.0,81,0.00,,CLR,0.00,VWS V14.01,2013-12-12 13:30:00,
2013-12-12 08:35:00,25.5,20.2,30.33,NW,315,0.0,0.0,80,0.00,,CLR,0.00,VWS V14.01,2013-12-12 13:35:00,
2013-12-12 08:40:00,26.1,20.8,30.33,NW,315,0.0,0.0,80,0.00,,CLR,0.00,VWS V14.01,2013-12-12 13:40:00,
2013-12-12 08:45:00,26.8,21.1,30.33,NW,315,0.0,0.0,79,0.00,,CLR,0.00,VWS V14.01,2013-12-12 13:45:00,
2013-12-12 08:50:00,27.3,21.7,30.33,NW,315,0.0,0.0,79,0.00,,CLR,0.00,VWS V14.01,2013-12-12 13:50:00,
2013-12-12 08:55:00,29.7,22.7,30.33,NW,315,0.0,0.0,75,0.00,,CLR,0.00,VWS V14.01,2013-12-12 13:55:00,
2013-12-12 09:00:00,31.1,22.5,30.33,NW,315,0.0,0.0,70,0.00,,CLR,0.00,VWS V14.01,2013-12-12 14:00:00,
2013-12-12 09:05:00,32.5,20.6,30.33,NW,315,0.0,0.0,61,0.00,,CLR,0.00,VWS V14.01,2013-12-12 14:05:00,
2013-12-12 09:10:00,33.4,19.4,30.33,NW,315,0.0,0.0,56,0.00,,CLR,0.00,VWS V14.01,2013-12-12 14:10:00,
2013-12-12 09:15:00,33.8,17.6,30.33,NW,315,0.0,0.0,51,0.00,,CLR,0.00,VWS V14.01,2013-12-12 14:15:00,
2013-12-12 09:20:00,34.3,15.2,30.36,NW,315,0.0,0.0,45,0.00,,CLR,0.00,VWS V14.01,2013-12-12 14:20:00,
2013-12-12 09:25:00,35.1,13.8,30.36,NW,315,2.2,2.2,41,0.00,,CLR,0.00,VWS V14.01,2013-12-12 14:25:00,
2013-12-12 09:30:00,35.6,13.1,30.36,NW,315,2.7,2.7,39,0.00,,CLR,0.00,VWS V14.01,2013-12-12 14:30:00,
2013-12-12 09:35:00,36.7,12.3,30.33,NW,315,0.0,0.0,36,0.00,,CLR,0.00,VWS V14.01,2013-12-12 14:35:00,
2013-12-12 09:40:00,37.9,10.7,30.33,NW,315,2.7,2.7,32,0.00,,CLR,0.00,VWS V14.01,2013-12-12 14:40:00,
2013-12-12 09:45:00,39.0,10.2,30.33,NW,315,2.2,2.7,30,0.00,,CLR,0.00,VWS V14.01,2013-12-12 14:45:00,
2013-12-12 09:50:00,39.7,10.1,30.36,NW,315,2.2,2.7,29,0.00,,CLR,0.00,VWS V14.01,2013-12-12 14:50:00,
2013-12-12 09:55:00,40.1,10.4,30.36,NW,315,0.0,0.0,29,0.00,,CLR,0.00,VWS V14.01,2013-12-12 14:55:00,
2013-12-12 10:00:00,40.6,10.1,30.36,NW,315,3.1,3.6,28,0.00,,CLR,0.00,VWS V14.01,2013-12-12 15:00:00,
2013-12-12 10:05:00,41.0,10.4,30.36,NW,315,2.2,2.2,28,0.00,,CLR,0.00,VWS V14.01,2013-12-12 15:05:00,
2013-12-12 10:10:00,41.5,9.2,30.36,NW,315,2.2,2.7,26,0.00,,CLR,0.00,VWS V14.01,2013-12-12 15:10:00,
2013-12-12 10:15:00,41.9,9.5,30.36,NW,315,2.2,2.2,26,0.00,,CLR,0.00,VWS V14.01,2013-12-12 15:15:00,
2013-12-12 10:20:00,43.3,9.9,30.36,NW,315,3.6,3.6,25,0.00,,CLR,0.00,VWS V14.01,2013-12-12 15:20:00,
2013-12-12 10:25:00,41.2,8.9,30.36,West,270,2.7,3.1,26,0.00,,CLR,0.00,VWS V14.01,2013-12-12 15:25:00,
2013-12-12 10:30:00,41.4,6.4,30.36,WNW,292,3.6,3.6,23,0.00,,CLR,0.00,VWS V14.01,2013-12-12 15:30:00,
2013-12-12 10:35:00,43.2,7.9,30.36,NNW,338,2.7,2.7,23,0.00,,CLR,0.00,VWS V14.01,2013-12-12 15:35:00,
2013-12-12 10:40:00,42.1,7.0,30.36,WSW,248,4.0,4.0,23,0.00,,CLR,0.00,VWS V14.01,2013-12-12 15:40:00,
2013-12-12 10:45:00,42.6,7.4,30.36,WSW,248,0.0,0.0,23,0.00,,CLR,0.00,VWS V14.01,2013-12-12 15:45:00,
2013-12-12 10:50:00,41.4,6.4,30.33,West,270,2.2,5.4,23,0.00,,CLR,0.00,VWS V14.01,2013-12-12 15:50:00,
2013-12-12 10:55:00,43.5,8.2,30.33,WSW,248,3.6,3.6,23,0.00,,CLR,0.00,VWS V14.01,2013-12-12 15:55:00,
2013-12-12 11:00:00,42.1,7.0,30.33,WNW,292,2.7,3.6,23,0.00,,CLR,0.00,VWS V14.01,2013-12-12 16:00:00,
2013-12-12 11:05:00,42.4,5.3,30.36,WNW,292,5.8,5.8,21,0.00,,CLR,0.00,VWS V14.01,2013-12-12 16:05:00,
2013-12-12 11:10:00,43.3,5.0,30.36,West,270,3.6,3.6,20,0.00,,CLR,0.00,VWS V14.01,2013-12-12 16:10:00,
2013-12-12 11:15:00,43.2,4.8,30.36,WNW,292,3.1,4.0,20,0.00,,CLR,0.00,VWS V14.01,2013-12-12 16:15:00,
2013-12-12 11:20:00,44.1,5.6,30.33,NNE,22,5.4,5.4,20,0.00,,CLR,0.00,VWS V14.01,2013-12-12 16:20:00,
2013-12-12 11:25:00,43.9,5.4,30.33,NNE,22,2.7,3.1,20,0.00,,CLR,0.00,VWS V14.01,2013-12-12 16:25:00,
2013-12-12 11:30:00,44.1,5.6,30.33,WSW,248,3.1,3.1,20,0.00,,CLR,0.00,VWS V14.01,2013-12-12 16:30:00,
2013-12-12 11:35:00,46.0,7.2,30.33,NW,315,2.2,2.2,20,0.00,,CLR,0.00,VWS V14.01,2013-12-12 16:35:00,
2013-12-12 11:40:00,45.7,6.9,30.33,West,270,0.0,2.7,20,0.00,,CLR,0.00,VWS V14.01,2013-12-12 16:40:00,
2013-12-12 11:45:00,47.1,7.0,30.33,West,270,0.0,2.2,19,0.00,,CLR,0.00,VWS V14.01,2013-12-12 16:45:00,
2013-12-12 11:50:00,46.9,6.8,30.33,North,0,2.2,4.0,19,0.00,,CLR,0.00,VWS V14.01,2013-12-12 16:50:00,
2013-12-12 11:55:00,46.0,7.2,30.33,North,0,2.2,2.2,20,0.00,,CLR,0.00,VWS V14.01,2013-12-12 16:55:00,
2013-12-12 12:00:00,47.3,7.1,30.33,WNW,292,2.7,2.7,19,0.00,,CLR,0.00,VWS V14.01,2013-12-12 17:00:00,
2013-12-12 12:05:00,45.3,6.6,30.33,WNW,292,0.0,0.0,20,0.00,,CLR,0.00,VWS V14.01,2013-12-12 17:05:00,
2013-12-12 12:10:00,48.2,7.9,30.33,SSW,202,2.7,2.7,19,0.00,,CLR,0.00,VWS V14.01,2013-12-12 17:10:00,
2013-12-12 12:15:00,48.2,7.9,30.33,ESE,112,0.0,2.2,19,0.00,,CLR,0.00,VWS V14.01,2013-12-12 17:15:00,
2013-12-12 12:20:00,47.8,7.6,30.30,South,180,0.0,3.1,19,0.00,,CLR,0.00,VWS V14.01,2013-12-12 17:20:00,
2013-12-12 12:25:00,47.8,7.6,30.30,NNE,22,3.1,3.1,19,0.00,,CLR,0.00,VWS V14.01,2013-12-12 17:25:00,
2013-12-12 12:30:00,48.0,7.7,30.30,SSW,202,0.0,0.0,19,0.00,,CLR,0.00,VWS V14.01,2013-12-12 17:30:00,
2013-12-12 12:35:00,48.6,8.2,30.30,NW,315,2.2,3.6,19,0.00,,CLR,0.00,VWS V14.01,2013-12-12 17:35:00,
2013-12-12 12:40:00,48.6,8.2,30.30,SW,225,2.2,2.2,19,0.00,,CLR,0.00,VWS V14.01,2013-12-12 17:40:00,
2013-12-12 12:45:00,48.7,8.3,30.30,ENE,68,3.1,3.1,19,0.00,,CLR,0.00,VWS V14.01,2013-12-12 17:45:00,
2013-12-12 12:50:00,47.7,7.4,30.30,South,180,2.7,2.7,19,0.00,,CLR,0.00,VWS V14.01,2013-12-12 17:50:00,
2013-12-12 12:55:00,47.3,7.1,30.30,SSE,158,6.3,7.6,19,0.00,,CLR,0.00,VWS V14.01,2013-12-12 17:55:00,
2013-12-12 13:00:00,47.8,7.6,30.30,SSE,158,3.1,3.6,19,0.00,,CLR,0.00,VWS V14.01,2013-12-12 18:00:00,
2013-12-12 13:05:00,48.6,8.2,30.30,SSE,158,2.2,2.7,19,0.00,,CLR,0.00,VWS V14.01,2013-12-12 18:05:00,
2013-12-12 13:10:00,48.2,7.9,30.30,WNW,292,3.6,4.0,19,0.00,,CLR,0.00,VWS V14.01,2013-12-12 18:10:00,
2013-12-12 13:15:00,48.0,7.7,30.30,West,270,2.7,2.7,19,0.00,,CLR,0.00,VWS V14.01,2013-12-12 18:15:00,
2013-12-12 13:20:00,48.4,8.0,30.30,WNW,292,3.1,3.1,19,0.00,,CLR,0.00,VWS V14.01,2013-12-12 18:20:00,
2013-12-12 13:25:00,47.7,7.4,30.30,SSW,202,3.1,4.9,19,0.00,,CLR,0.00,VWS V14.01,2013-12-12 18:25:00,
2013-12-12 13:30:00,47.8,7.6,30.30,WSW,248,3.6,4.0,19,0.00,,CLR,0.00,VWS V14.01,2013-12-12 18:30:00,
2013-12-12 13:35:00,47.8,7.6,30.30,WNW,292,4.0,4.0,19,0.00,,CLR,0.00,VWS V14.01,2013-12-12 18:35:00,
2013-12-12 13:40:00,48.0,7.7,30.30,NNW,338,0.0,0.0,19,0.00,,CLR,0.00,VWS V14.01,2013-12-12 18:40:00,
2013-12-12 13:45:00,47.7,7.4,30.30,NNW,338,3.1,4.0,19,0.00,,CLR,0.00,VWS V14.01,2013-12-12 18:45:00,
2013-12-12 13:50:00,48.4,8.0,30.30,NNW,338,0.0,0.0,19,0.00,,CLR,0.00,VWS V14.01,2013-12-12 18:50:00,
2013-12-12 13:55:00,48.2,7.9,30.30,WSW,248,4.0,4.0,19,0.00,,CLR,0.00,VWS V14.01,2013-12-12 18:55:00,
2013-12-12 14:00:00,48.7,8.3,30.30,WNW,292,3.6,3.6,19,0.00,,CLR,0.00,VWS V14.01,2013-12-12 19:00:00,
2013-12-12 14:05:00,49.6,9.1,30.27,WNW,292,0.0,2.2,19,0.00,,CLR,0.00,VWS V14.01,2013-12-12 19:05:00,
2013-12-12 14:10:00,50.2,9.5,30.27,WNW,292,3.1,3.1,19,0.00,,CLR,0.00,VWS V14.01,2013-12-12 19:10:00,
2013-12-12 14:15:00,49.1,8.6,30.27,NNE,22,0.0,0.0,19,0.00,,CLR,0.00,VWS V14.01,2013-12-12 19:15:00,
2013-12-12 14:20:00,49.8,9.2,30.27,WSW,248,5.4,5.4,19,0.00,,CLR,0.00,VWS V14.01,2013-12-12 19:20:00,
2013-12-12 14:25:00,47.8,7.6,30.27,SSE,158,4.9,5.4,19,0.00,,CLR,0.00,VWS V14.01,2013-12-12 19:25:00,
2013-12-12 14:30:00,47.7,7.4,30.27,WNW,292,2.7,2.7,19,0.00,,CLR,0.00,VWS V14.01,2013-12-12 19:30:00,
2013-12-12 14:35:00,48.2,7.9,30.27,WNW,292,2.2,4.0,19,0.00,,CLR,0.00,VWS V14.01,2013-12-12 19:35:00,
2013-12-12 14:40:00,47.5,7.3,30.27,WSW,248,4.0,4.0,19,0.00,,CLR,0.00,VWS V14.01,2013-12-12 19:40:00,
2013-12-12 14:45:00,46.8,6.7,30.27,WSW,248,3.1,3.1,19,0.00,,CLR,0.00,VWS V14.01,2013-12-12 19:45:00,
2013-12-12 14:50:00,47.3,7.1,30.27,West,270,3.1,3.1,19,0.00,,CLR,0.00,VWS V14.01,2013-12-12 19:50:00,
2013-12-12 14:55:00,48.4,8.0,30.27,WSW,248,4.0,4.0,19,0.00,,CLR,0.00,VWS V14.01,2013-12-12 19:55:00,
2013-12-12 15:00:00,48.0,7.7,30.27,WNW,292,3.6,3.6,19,0.00,,CLR,0.00,VWS V14.01,2013-12-12 20:00:00,
2013-12-12 15:05:00,48.4,8.0,30.27,WNW,292,0.0,0.0,19,0.00,,CLR,0.00,VWS V14.01,2013-12-12 20:05:00,
2013-12-12 15:10:00,48.0,7.7,30.27,WNW,292,3.6,3.6,19,0.00,,CLR,0.00,VWS V14.01,2013-12-12 20:10:00,
2013-12-12 15:15:00,47.3,7.1,30.27,West,270,0.0,2.2,19,0.00,,CLR,0.00,VWS V14.01,2013-12-12 20:15:00,
2013-12-12 15:20:00,47.1,7.0,30.27,WNW,292,4.0,4.5,19,0.00,,CLR,0.00,VWS V14.01,2013-12-12 20:20:00,
2013-12-12 15:25:00,46.2,7.4,30.27,WNW,292,3.6,3.6,20,0.00,,CLR,0.00,VWS V14.01,2013-12-12 20:25:00,
2013-12-12 15:30:00,45.7,6.9,30.27,WNW,292,3.6,3.6,20,0.00,,CLR,0.00,VWS V14.01,2013-12-12 20:30:00,
2013-12-12 15:35:00,45.5,6.8,30.30,WNW,292,2.2,2.2,20,0.00,,CLR,0.00,VWS V14.01,2013-12-12 20:35:00,
2013-12-12 15:40:00,45.7,6.9,30.30,WNW,292,0.0,0.0,20,0.00,,CLR,0.00,VWS V14.01,2013-12-12 20:40:00,
2013-12-12 15:45:00,45.3,6.6,30.30,NNE,22,0.0,0.0,20,0.00,,CLR,0.00,VWS V14.01,2013-12-12 20:45:00,
2013-12-12 15:50:00,45.1,6.5,30.27,NNE,22,3.6,3.6,20,0.00,,CLR,0.00,VWS V14.01,2013-12-12 20:50:00,
2013-12-12 15:55:00,45.0,6.3,30.27,NNE,22,0.0,0.0,20,0.00,,CLR,0.00,VWS V14.01,2013-12-12 20:55:00,
2013-12-12 16:00:00,45.5,6.8,30.27,NNE,22,2.2,2.2,20,0.00,,CLR,0.00,VWS V14.01,2013-12-12 21:00:00,
2013-12-12 16:05:00,45.0,6.3,30.27,WNW,292,2.7,2.7,20,0.00,,CLR,0.00,VWS V14.01,2013-12-12 21:05:00,
2013-12-12 16:10:00,45.0,6.3,30.27,NW,315,2.7,2.7,20,0.00,,CLR,0.00,VWS V14.01,2013-12-12 21:10:00,
2013-12-12 16:15:00,44.6,6.0,30.27,NNE,22,3.6,3.6,20,0.00,,CLR,0.00,VWS V14.01,2013-12-12 21:15:00,
2013-12-12 16:20:00,44.6,6.0,30.30,NNE,22,0.0,0.0,20,0.00,,CLR,0.00,VWS V14.01,2013-12-12 21:20:00,
2013-12-12 16:25:00,44.8,6.2,30.30,NNE,22,2.7,3.6,20,0.00,,CLR,0.00,VWS V14.01,2013-12-12 21:25:00,
2013-12-12 16:30:00,44.2,5.7,30.30,NNE,22,0.0,2.2,20,0.00,,CLR,0.00,VWS V14.01,2013-12-12 21:30:00,
2013-12-12 16:35:00,44.1,5.6,30.30,NNW,338,0.0,0.0,20,0.00,,CLR,0.00,VWS V14.01,2013-12-12 21:35:00,
2013-12-12 16:40:00,43.5,5.1,30.30,NNW,338,2.7,2.7,20,0.00,,CLR,0.00,VWS V14.01,2013-12-12 21:40:00,
2013-12-12 16:45:00,42.4,5.3,30.30,NNW,338,2.2,3.1,21,0.00,,CLR,0.00,VWS V14.01,2013-12-12 21:45:00,
2013-12-12 16:50:00,41.7,4.7,30.27,NNW,338,2.7,2.7,21,0.00,,CLR,0.00,VWS V14.01,2013-12-12 21:50:00,
2013-12-12 16:55:00,41.4,4.4,30.27,NNW,338,2.2,2.7,21,0.00,,CLR,0.00,VWS V14.01,2013-12-12 21:55:00,
2013-12-12 17:00:00,40.6,3.8,30.27,NNW,338,2.2,2.2,21,0.00,,CLR,0.00,VWS V14.01,2013-12-12 22:00:00,
2013-12-12 17:05:00,39.9,3.2,30.30,NNW,338,2.2,2.7,21,0.00,,CLR,0.00,VWS V14.01,2013-12-12 22:05:00,
2013-12-12 17:10:00,39.6,2.9,30.30,NNW,338,2.2,2.2,21,0.00,,CLR,0.00,VWS V14.01,2013-12-12 22:10:00,
2013-12-12 17:15:00,39.2,2.6,30.30,NNW,338,3.6,3.6,21,0.00,,CLR,0.00,VWS V14.01,2013-12-12 22:15:00,
2013-12-12 17:20:00,38.7,2.1,30.30,NNW,338,0.0,2.7,21,0.00,,CLR,0.00,VWS V14.01,2013-12-12 22:20:00,
2013-12-12 17:25:00,37.9,1.5,30.30,NNW,338,0.0,2.2,21,0.00,,CLR,0.00,VWS V14.01,2013-12-12 22:25:00,
2013-12-12 17:30:00,37.6,1.2,30.30,NNW,338,0.0,2.2,21,0.00,,CLR,0.00,VWS V14.01,2013-12-12 22:30:00,
2013-12-12 17:35:00,36.9,1.6,30.30,NNW,338,0.0,0.0,22,0.00,,CLR,0.00,VWS V14.01,2013-12-12 22:35:00,
2013-12-12 17:40:00,36.5,1.3,30.30,NNW,338,0.0,0.0,22,0.00,,CLR,0.00,VWS V14.01,2013-12-12 22:40:00,
2013-12-12 17:45:00,36.3,1.1,30.30,NNW,338,0.0,0.0,22,0.00,,CLR,0.00,VWS V14.01,2013-12-12 22:45:00,
2013-12-12 17:50:00,35.8,0.7,30.30,NNW,338,0.0,0.0,22,0.00,,CLR,0.00,VWS V14.01,2013-12-12 22:50:00,
2013-12-12 17:55:00,35.6,0.5,30.30,NNW,338,0.0,0.0,22,0.00,,CLR,0.00,VWS V14.01,2013-12-12 22:55:00,
2013-12-12 18:00:00,35.1,0.1,30.30,NNW,338,2.7,2.7,22,0.00,,CLR,0.00,VWS V14.01,2013-12-12 23:00:00,
2013-12-12 18:05:00,34.9,-0.1,30.30,NNW,338,0.0,2.2,22,0.00,,CLR,0.00,VWS V14.01,2013-12-12 23:05:00,
2013-12-12 18:10:00,34.9,-0.1,30.30,NNW,338,0.0,0.0,22,0.00,,CLR,0.00,VWS V14.01,2013-12-12 23:10:00,
2013-12-12 18:15:00,34.7,-0.2,30.30,NNW,338,0.0,0.0,22,0.00,,CLR,0.00,VWS V14.01,2013-12-12 23:15:00,
2013-12-12 18:21:00,34.3,-0.6,30.30,NNW,338,0.0,0.0,22,0.00,,CLR,0.00,VWS V14.01,2013-12-12 23:21:00,
2013-12-12 18:26:00,34.2,-0.7,30.30,NNW,338,0.0,0.0,22,0.00,,CLR,0.00,VWS V14.01,2013-12-12 23:26:00,
2013-12-12 18:31:00,34.3,-0.6,30.30,NNW,338,0.0,0.0,22,0.00,,CLR,0.00,VWS V14.01,2013-12-12 23:31:00,
2013-12-12 18:36:00,34.0,-0.9,30.33,NNW,338,0.0,2.2,22,0.00,,CLR,0.00,VWS V14.01,2013-12-12 23:36:00,
2013-12-12 18:41:00,33.6,1.6,30.33,NNW,338,0.0,2.2,25,0.00,,CLR,0.00,VWS V14.01,2013-12-12 23:41:00,
2013-12-12 18:46:00,33.3,1.2,30.33,NNW,338,0.0,0.0,25,0.00,,CLR,0.00,VWS V14.01,2013-12-12 23:46:00,
2013-12-12 18:51:00,32.9,3.4,30.33,NNW,338,0.0,2.7,28,0.00,,CLR,0.00,VWS V14.01,2013-12-12 23:51:00,
2013-12-12 18:56:00,33.1,3.5,30.33,NNW,338,2.7,2.7,28,0.00,,CLR,0.00,VWS V14.01,2013-12-12 23:56:00,
2013-12-12 19:01:00,32.7,4.7,30.33,NNW,338,2.2,2.7,30,0.00,,CLR,0.00,VWS V14.01,2013-12-13 00:01:00,
2013-12-12 19:06:00,32.5,4.6,30.33,NNW,338,0.0,0.0,30,0.00,,CLR,0.00,VWS V14.01,2013-12-13 00:06:00,
2013-12-12 19:11:00,32.4,4.4,30.33,NNW,338,0.0,0.0,30,0.00,,CLR,0.00,VWS V14.01,2013-12-13 00:11:00,
2013-12-12 19:16:00,32.5,3.1,30.33,NNW,338,0.0,2.2,28,0.00,,CLR,0.00,VWS V14.01,2013-12-13 00:16:00,
2013-12-12 19:21:00,32.5,4.6,30.33,NNW,338,0.0,0.0,30,0.00,,CLR,0.00,VWS V14.01,2013-12-13 00:21:00,
2013-12-12 19:26:00,32.5,4.6,30.33,NNW,338,0.0,0.0,30,0.00,,CLR,0.00,VWS V14.01,2013-12-13 00:26:00,
2013-12-12 19:31:00,32.2,2.8,30.33,NNW,338,0.0,0.0,28,0.00,,CLR,0.00,VWS V14.01,2013-12-13 00:31:00,
2013-12-12 19:36:00,32.4,2.9,30.33,NNW,338,0.0,0.0,28,0.00,,CLR,0.00,VWS V14.01,2013-12-13 00:36:00,
2013-12-12 19:41:00,32.2,2.8,30.33,NNW,338,2.2,2.2,28,0.00,,CLR,0.00,VWS V14.01,2013-12-13 00:41:00,
2013-12-12 19:46:00,32.2,2.8,30.33,NNW,338,0.0,0.0,28,0.00,,CLR,0.00,VWS V14.01,2013-12-13 00:46:00,
2013-12-12 19:51:00,32.4,2.9,30.30,NNW,338,0.0,0.0,28,0.00,,CLR,0.00,VWS V14.01,2013-12-13 00:51:00,
2013-12-12 19:56:00,32.2,2.8,30.30,NNW,338,0.0,0.0,28,0.00,,CLR,0.00,VWS V14.01,2013-12-13 00:56:00,
2013-12-12 20:01:00,32.0,2.6,30.30,NNW,338,0.0,0.0,28,0.00,,CLR,0.00,VWS V14.01,2013-12-13 01:01:00,
2013-12-12 20:06:00,32.0,0.2,30.30,NNW,338,0.0,0.0,25,0.00,,CLR,0.00,VWS V14.01,2013-12-13 01:06:00,
2013-12-12 20:11:00,32.0,2.6,30.30,NNW,338,0.0,0.0,28,0.00,,CLR,0.00,VWS V14.01,2013-12-13 01:11:00,
2013-12-12 20:16:00,31.8,2.4,30.30,NNW,338,0.0,0.0,28,0.00,,CLR,0.00,VWS V14.01,2013-12-13 01:16:00,
2013-12-12 20:21:00,31.6,2.3,30.30,NNW,338,0.0,0.0,28,0.00,,CLR,0.00,VWS V14.01,2013-12-13 01:21:00,
2013-12-12 20:26:00,31.6,2.3,30.30,NNW,338,0.0,0.0,28,0.00,,CLR,0.00,VWS V14.01,2013-12-13 01:26:00,
2013-12-12 20:31:00,31.8,2.4,30.30,NNW,338,0.0,2.2,28,0.00,,CLR,0.00,VWS V14.01,2013-12-13 01:31:00,
2013-12-12 20:36:00,32.0,2.6,30.30,NNW,338,0.0,2.2,28,0.00,,CLR,0.00,VWS V14.01,2013-12-13 01:36:00,
2013-12-12 20:41:00,31.5,3.6,30.30,NNW,338,2.2,2.2,30,0.00,,CLR,0.00,VWS V14.01,2013-12-13 01:41:00,
2013-12-12 20:46:00,31.5,3.6,30.30,NNW,338,0.0,0.0,30,0.00,,CLR,0.00,VWS V14.01,2013-12-13 01:46:00,
2013-12-12 20:51:00,31.1,3.3,30.33,NNW,338,0.0,0.0,30,0.00,,CLR,0.00,VWS V14.01,2013-12-13 01:51:00,
2013-12-12 20:56:00,30.6,2.8,30.33,NNW,338,0.0,0.0,30,0.00,,CLR,0.00,VWS V14.01,2013-12-13 01:56:00,
2013-12-12 21:01:00,30.2,2.5,30.33,NNW,338,0.0,0.0,30,0.00,,CLR,0.00,VWS V14.01,2013-12-13 02:01:00,
2013-12-12 21:06:00,29.5,1.9,30.33,NNW,338,0.0,0.0,30,0.00,,CLR,0.00,VWS V14.01,2013-12-13 02:06:00,
2013-12-12 21:11:00,29.7,2.7,30.33,NNW,338,0.0,0.0,31,0.00,,CLR,0.00,VWS V14.01,2013-12-13 02:11:00,
2013-12-12 21:16:00,30.0,3.1,30.33,NNW,338,2.2,2.2,31,0.00,,CLR,0.00,VWS V14.01,2013-12-13 02:16:00,
2013-12-12 21:21:00,30.4,2.7,30.30,NNW,338,0.0,2.7,30,0.00,,CLR,0.00,VWS V14.01,2013-12-13 02:21:00,
2013-12-12 21:26:00,30.0,3.1,30.30,NNW,338,0.0,0.0,31,0.00,,CLR,0.00,VWS V14.01,2013-12-13 02:26:00,
2013-12-12 21:31:00,29.8,2.2,30.30,NNW,338,2.2,2.2,30,0.00,,CLR,0.00,VWS V14.01,2013-12-13 02:31:00,
2013-12-12 21:36:00,30.0,2.3,30.33,NNW,338,0.0,2.2,30,0.00,,CLR,0.00,VWS V14.01,2013-12-13 02:36:00,
2013-12-12 21:41:00,30.0,2.3,30.33,NNW,338,0.0,0.0,30,0.00,,CLR,0.00,VWS V14.01,2013-12-13 02:41:00,
2013-12-12 21:46:00,30.0,2.3,30.33,NNW,338,0.0,2.7,30,0.00,,CLR,0.00,VWS V14.01,2013-12-13 02:46:00,
2013-12-12 21:51:00,30.0,2.3,30.30,NNW,338,2.2,2.2,30,0.00,,CLR,0.00,VWS V14.01,2013-12-13 02:51:00,
2013-12-12 21:56:00,28.8,2.6,30.30,NNW,338,0.0,2.2,32,0.00,,CLR,0.00,VWS V14.01,2013-12-13 02:56:00,
2013-12-12 22:01:00,28.6,2.5,30.30,NNW,338,0.0,0.0,32,0.00,,CLR,0.00,VWS V14.01,2013-12-13 03:01:00,
2013-12-12 22:06:00,28.6,2.5,30.30,NNW,338,0.0,0.0,32,0.00,,CLR,0.00,VWS V14.01,2013-12-13 03:06:00,
2013-12-12 22:11:00,28.4,3.0,30.30,NNW,338,0.0,0.0,33,0.00,,CLR,0.00,VWS V14.01,2013-12-13 03:11:00,
2013-12-12 22:16:00,28.2,2.8,30.30,NNW,338,0.0,0.0,33,0.00,,CLR,0.00,VWS V14.01,2013-12-13 03:16:00,
2013-12-12 22:21:00,28.0,3.3,30.30,NNW,338,2.2,2.7,34,0.00,,CLR,0.00,VWS V14.01,2013-12-13 03:21:00,
2013-12-12 22:26:00,27.9,3.2,30.30,NNW,338,0.0,0.0,34,0.00,,CLR,0.00,VWS V14.01,2013-12-13 03:26:00,
2013-12-12 22:31:00,27.5,2.8,30.30,NNW,338,0.0,0.0,34,0.00,,CLR,0.00,VWS V14.01,2013-12-13 03:31:00,
2013-12-12 22:36:00,27.3,3.3,30.30,NNW,338,0.0,0.0,35,0.00,,CLR,0.00,VWS V14.01,2013-12-13 03:36:00,
2013-12-12 22:41:00,27.0,4.2,30.30,NNW,338,0.0,0.0,37,0.00,,CLR,0.00,VWS V14.01,2013-12-13 03:41:00,
2013-12-12 22:46:00,26.8,4.6,30.30,NNW,338,0.0,0.0,38,0.00,,CLR,0.00,VWS V14.01,2013-12-13 03:46:00,
2013-12-12 22:51:00,26.6,5.0,30.30,NNW,338,2.2,2.2,39,0.00,,CLR,0.00,VWS V14.01,2013-12-13 03:51:00,
2013-12-12 22:56:00,26.2,6.3,30.30,NNW,338,0.0,0.0,42,0.00,,CLR,0.00,VWS V14.01,2013-12-13 03:56:00,
2013-12-12 23:01:00,26.1,6.6,30.30,NNW,338,0.0,0.0,43,0.00,,CLR,0.00,VWS V14.01,2013-12-13 04:01:00,
2013-12-12 23:06:00,26.1,6.1,30.30,NNW,338,0.0,0.0,42,0.00,,CLR,0.00,VWS V14.01,2013-12-13 04:06:00,
2013-12-12 23:11:00,25.7,5.8,30.30,NNW,338,0.0,0.0,42,0.00,,CLR,0.00,VWS V14.01,2013-12-13 04:11:00,
2013-12-12 23:16:00,26.2,6.3,30.30,NNW,338,2.2,2.7,42,0.00,,CLR,0.00,VWS V14.01,2013-12-13 04:16:00,
2013-12-12 23:21:00,26.2,6.8,30.27,NNW,338,0.0,0.0,43,0.00,,CLR,0.00,VWS V14.01,2013-12-13 04:21:00,
2013-12-12 23:26:00,26.2,6.8,30.27,NNW,338,0.0,0.0,43,0.00,,CLR,0.00,VWS V14.01,2013-12-13 04:26:00,
2013-12-12 23:31:00,26.4,7.5,30.27,NNW,338,0.0,0.0,44,0.00,,CLR,0.00,VWS V14.01,2013-12-13 04:31:00,
2013-12-12 23:36:00,26.2,7.3,30.27,NNW,338,2.2,2.2,44,0.00,,CLR,0.00,VWS V14.01,2013-12-13 04:36:00,
2013-12-12 23:41:00,26.1,7.2,30.27,NNW,338,0.0,2.2,44,0.00,,CLR,0.00,VWS V14.01,2013-12-13 04:41:00,
2013-12-12 23:46:00,25.9,7.5,30.27,NNW,338,0.0,0.0,45,0.00,,CLR,0.00,VWS V14.01,2013-12-13 04:46:00,
2013-12-12 23:51:00,26.1,7.6,30.27,NNW,338,0.0,0.0,45,0.00,,CLR,0.00,VWS V14.01,2013-12-13 04:51:00,
2013-12-12 23:56:00,25.5,6.7,30.27,NNW,338,0.0,0.0,44,0.00,,CLR,0.00,VWS V14.01,2013-12-13 04:56:00,